Regional Weather Roundup
Issued by NWS

Home | Current Version | Previous Version | Graphics & Text | Print | Product List | Glossary On
Versions: 1 2 3 4 5 6 7 8 9 10 11 12 13 14 15 16 17 18 19 20 21 22 23 24 25 26 27 28 29 30 31 32 33 34 35 36 37 38 39 40 41 42 43 44 45 46 47 48 49 50
000
ASUS45 KTFX 250804
RWRMT
MONTANA HOURLY WEATHER ROUNDUP
NATIONAL WEATHER SERVICE GREAT FALLS MT
204 AM MDT SAT OCT 25 2014

NOTE: "FAIR" INDICATES FEW OR NO CLOUDS BELOW 12000 FEET WITH NO
SIGNIFICANT WEATHER AND/OR OBSTRUCTIONS TO VISIBILITY.

* THESE STATIONS ARE NOT UNDER NWS QUALITY CONTROL. THEY DO NOT
   REPORT WEATHER SUCH AS PRECIPITATION OR FOG.

MTZ001>007-043-250900-
WEST OF THE DIVIDE
CITY           SKY/WX    TMP DP  RH WIND       PRES   REMARKS
KALISPELL      CLOUDY    43  41  93 N3        30.02F
MISSOULA       CLOUDY    45  43  93 SE7       30.04F
BUTTE          CLOUDY    34  32  92 S5        30.09F WCI  29
MULLAN PASS    FOG       36  36 100 S10       29.98F VSB M1/4 WCI  29
* ESSEX        N/A       39  38  96 NE1        N/A
* LINCOLN      N/A       33  32  96 N/A        N/A
* LOOKOUT PASS N/A       40  40 100 S9         N/A   WCI  34
* POLSON       N/A       40  40 100 N/A        N/A
* RONAN APT    CLOUDY    39  37  93 N/A        N/A
* SEELEY LAKE  N/A       35  34  96 N/A        N/A
* THOMP F APT  CLOUDY    47  24  40 NE5        N/A
$$

MTZ008-052>055-250900-
SOUTHWEST MONTANA
CITY           SKY/WX    TMP DP  RH WIND       PRES   REMARKS
BOZEMAN        MOCLDY    32  30  92 S3        30.10F
DILLON         MOCLDY    36  34  92 SW3       30.09F
W YELLOWSTONE  CLEAR     27  25  92 CALM      30.21R
* THREE FORKS  CLOUDY    34  18  52 N/A        N/A
* BOULDER HILL N/A       37  34  89 SW11       N/A   WCI  29
* MONIDA PASS  N/A       40  24  53 SE12       N/A   WCI  33
* RAYNOLDS PAS N/A       39  24  55 S15        N/A   WCI  31
* WHITEHALL    N/A       37  36  96 N3         N/A
* WISE RIVER   N/A       37  36  96 S2         N/A
$$

MTZ009>010-012-014-046-048-049-054-250900-
EAST SLOPES AND CENTRAL MONTANA
CITY           SKY/WX    TMP DP  RH WIND       PRES   REMARKS
CUT BANK       CLOUDY    43  34  71 SE5       30.06S
GREAT FALLS    PTCLDY    43  39  86 E6        30.04F
HELENA         MOCLDY    39  37  93 W3        30.06F
* CONRAD       CLOUDY    46  36  68 N/A        N/A
* DEARBORN     N/A       41  38  89 S4         N/A
* EAST GLACIER N/A       40  31  70 NW2        N/A
* MONARCH      N/A       39  34  82 E1G6       N/A
* PENDROY      N/A       42  35  76 SE5        N/A
* ROGERS PASS  N/A       39  34  82 NW4        N/A
* SAINT MARY   N/A       38  32  79 S1         N/A
* SWEET GRASS  N/A       44  31  60 SW12       N/A
$$

MTZ011-013-016-021-035-040-045-047-050-051-250900-
NORTH CENTRAL MONTANA
CITY           SKY/WX    TMP DP  RH WIND       PRES   REMARKS
HAVRE          CLOUDY    41  34  76 CALM      30.08S
LEWISTOWN      CLEAR     41  37  86 SE9       30.09F
* CHESTER      N/A       40  32  73 N1         N/A
* DENTON       N/A       41  39  93 S8         N/A
* GEYSER       N/A       36  35  96 SW1        N/A
* JUDITH GAP   N/A       37  37 100 S6         N/A   WCI  32
* LOMA         N/A       46  37  71 NE8        N/A
$$

MTZ017>020-022>027-061-062-250900-
NORTHEAST MONTANA
CITY           SKY/WX    TMP DP  RH WIND       PRES   REMARKS
GLASGOW        CLOUDY    45  28  51 N3        30.09S
GLENDIVE       CLOUDY    45  34  65 SW8       30.13R
JORDAN         PTCLDY    39  32  76 W3        30.11R
SIDNEY         CLOUDY    45  32  60 CALM      30.11S
WOLF POINT     CLOUDY    41  34  76 SW3       30.09F
* BEAVER HILL  N/A       48  30  50 S8         N/A
* CIRCLE       N/A       43  36  76 N/A        N/A
* LINDSAY DVD  N/A       48  29  48 W2         N/A
* NAVAJO       N/A       41  26  55 NW9        N/A
$$

MTZ028>042-056>058-250900-
SOUTHCENTRAL AND SOUTHEAST MONTANA
CITY           SKY/WX    TMP DP  RH WIND       PRES   REMARKS
BAKER          PTCLDY    36  28  73 CALM      30.13R
BILLINGS       MOCLDY    45  34  65 N6        30.10S
LIVINGSTON     CLOUDY    34  30  85 CALM      30.11S
MILES CITY     PTCLDY    45  34  65 SE6       30.12S
* LAUREL APT   MOCLDY    43  30  60 N/A        N/A
* ROUNDUP APT  PTCLDY    41  34  76 N/A        N/A
* ALZADA       N/A       43  32  65 E2         N/A
* HYSHAM       N/A       51  30  45 S9         N/A
* LAME DEER    N/A       47  30  52 SE7        N/A
* REED POINT   N/A       34  33  96 SW1        N/A
* ROSCOE HILL  N/A       42  33  71 N/A        N/A
$$

REGIONAL REPORTS...DAKOTAS
CITY           SKY/WX    TMP DP  RH WIND       PRES   REMARKS
WILLISTON      CLOUDY    45  28  51 SW5       30.08R
DICKINSON      CLOUDY    46  32  58 W9        30.10R
BEACH          N/A       46  32  58 CALM      30.12S
CROSBY         CLEAR     37  28  70 W12       30.07R WCI  29
TIOGA          CLEAR     36  32  85 W7        30.11R WCI  30
BISMARCK       PTCLDY    39  28  65 CALM      30.09R
GRAND FORKS    PTCLDY    43  34  71 W8        29.96R
FARGO          CLEAR     45  30  56 W10       30.00R
BUFFALO SD     PTCLDY    48  30  50 NW7       30.07S
RAPID CITY     CLEAR     41  30  65 NW9       30.15S
$$

REGIONAL REPORTS...WYOMING/IDAHO/WASHINGTON
CITY           SKY/WX    TMP DP  RH WIND       PRES   REMARKS
GILLETTE       PTCLDY    32  28  85 S8        30.14F WCI  25
SHERIDAN       PTCLDY    34  27  76 E3        30.12F
CODY           PTCLDY    39  36  89 CALM      30.11S
YELLOWSTONE LA PTCLDY    27  23  85 NW3       30.28S
SALMON         CLOUDY    37  37 100 CALM      30.08F
MULLAN PASS    FOG       36  36 100 S10       29.98S VSB M1/4 WCI  29
SAND POINT     CLOUDY    45  41  86 N15       29.97F
SPOKANE        CLOUDY    46  43  89 NE9       29.90F

$$




USA.gov is the U.S. government's official web portal to all federal, state and local government web resources and services.